| time (UTC) | temp C | wind direction | speed KPH | gust KPH | rain 1hr cm | rain 24hr cm | rain mn cm | humidity % | barometer mb |
| 20260507200003 | 15 | 264 | 9.7 | 12.9 | 0.00 | 1.30 | 0.03 | 43 | 1004.2 |
| 20260507190024 | 12 | 221 | 11.3 | 12.9 | 0.00 | 1.78 | 0.03 | 47 | 1004.4 |
| 20260507180003 | 13 | 225 | 8.0 | 20.9 | 0.00 | 2.18 | 0.03 | 49 | 1004.8 |
| 20260507170003 | 12 | 215 | 14.5 | 14.5 | 0.00 | 2.31 | 0.03 | 51 | 1005.3 |
| 20260507160004 | 9 | 180 | 9.7 | 14.5 | 0.00 | 2.44 | 0.03 | 85 | 1006.0 |
| 20260507150003 | 6 | 183 | 6.4 | 11.3 | 0.00 | 2.54 | 0.03 | 99 | 1006.3 |
| 20260507140023 | 6 | 135 | 3.2 | 4.8 | 0.00 | 2.59 | 0.03 | 99 | 1006.2 |
| 20260507130003 | 6 | 0 | 0.0 | 0.0 | 0.00 | 2.62 | 0.03 | 99 | 1006.4 |
| 20260507120002 | 5 | 0 | 0.0 | 0.0 | 0.00 | 2.62 | 0.03 | 99 | 1006.3 |
| 20260507110023 | 4 | 0 | 0.0 | 0.0 | 0.03 | 2.62 | 0.03 | 99 | 1006.3 |
| 20260507100003 | 2 | 0 | 0.0 | 0.0 | 0.00 | 2.59 | 0.00 | 99 | 1006.2 |
| 20260507090024 | 3 | 135 | 0.0 | 3.2 | 0.00 | 2.59 | 0.00 | 99 | 1006.2 |
| 20260507080003 | 3 | 0 | 0.0 | 0.0 | 0.00 | 2.59 | 0.00 | 99 | 1006.0 |
| 20260507070005 | 5 | 0 | 0.0 | 0.0 | 0.00 | 2.67 | 0.00 | 99 | 1006.0 |
| 20260507060023 | 5 | 0 | 0.0 | 0.0 | 0.00 | 2.69 | 0.00 | 99 | 1005.9 |
| 20260507050003 | 5 | 135 | 0.0 | 3.2 | 0.00 | 2.72 | 0.00 | 99 | 1006.2 |
| 20260507040003 | 5 | 135 | 4.8 | 4.8 | 0.03 | 2.72 | 0.00 | 99 | 1006.1 |
| 20260507030003 | 5 | 135 | 3.2 | 4.8 | 0.15 | 2.69 | 2.69 | 99 | 1006.8 |
| 20260507020003 | 6 | 0 | 0.0 | 0.0 | 0.15 | 2.54 | 2.54 | 99 | 1006.6 |
| 20260507010003 | 6 | 0 | 0.0 | 0.0 | 0.13 | 2.39 | 2.39 | 99 | 1005.7 |
| 20260507000003 | 7 | 135 | 0.0 | 1.6 | 0.08 | 2.26 | 2.26 | 99 | 1005.2 |
| 20260506230003 | 7 | 0 | 0.0 | 0.0 | 0.23 | 2.18 | 2.18 | 99 | 1004.9 |
| 20260506220024 | 7 | 0 | 0.0 | 0.0 | 0.48 | 1.96 | 1.96 | 99 | 1004.7 |
| 20260506210004 | 8 | 360 | 0.0 | 3.2 | 0.03 | 1.78 | 1.47 | 99 | 1004.0 |